Home > Weather > Boulder > Past weeks

Flag for USA Past Weather in Boulder, Colorado, USA — Yesterday and Last 2 Weeks

Now
66 °F

Partly sunny.


Feels Like: 66 °F
Forecast: 59 / 78 °F
Wind: 3 mph from West

Location: Broomfield / Jeffco

Current Time: Jun 30, 2016 at 11:41:11 AM

Latest Report: Jun 30, 2016 at 9:47 AM


Visibility: 25 mi

Pressure: 30.28 "Hg (25.04 "Hg at 1623m altitude)

Humidity: 68%

Dew Point: 55 °F

Location of BoulderLocation

Past Weather in Boulder — Graph

°F

Boulder Temperature Yesterday

Maximum temperature yesterday: 86 °F (at 2:47 PM)
Minimum temperature yesterday: 54 °F (at 4:15 AM)
Average temperature yesterday: 65 °F

High & Low Weather Summary for the Past Weeks

 TemperatureHumidityPressure
High99 °F (Jun 19, 2:58 PM)94% (Jun 21, 3:35 AM)30.48 "Hg (Jun 21, 3:35 AM)
Low54 °F (Jun 29, 4:15 AM)10% (Jun 16, 12:47 PM)29.88 "Hg (Jun 15, 6:45 PM)
Average72 °F47%30.20 "Hg
* Reported Jun 15 9:47 AM — Jun 30 9:47 AM, Boulder, Weather by CustomWeather, © 2016

Note: Actual official high and low records may vary slightly from our data, if they occured in-between our weather recording intervals... More about our weather records

Advertising

Boulder Weather History for the Previous 24 Hours

Scroll right to see more
 ConditionsComfort  
Time TempWeatherWind HumidityBarometerVisibility
9:47 AM
Thu, Jun 30
66 °FPartly sunny.3 mph68%30.28 "Hg25 mi
8:47 AM66 °FPartly sunny.8 mph68%30.27 "Hg35 mi
7:47 AM63 °FPartly sunny.7 mph77%30.26 "Hg40 mi
6:47 AM61 °FPartly sunny.8 mph77%30.25 "Hg40 mi
5:55 AM59 °FClear.15 mph77%30.22 "Hg10 mi
5:34 AM61 °FClear.15 mph72%30.22 "Hg10 mi
5:15 AM61 °FClear.16 mph72%30.22 "Hg10 mi
4:55 AM61 °FClear.16 mph72%30.21 "Hg10 mi
4:35 AM61 °FClear.17 mph72%30.21 "Hg10 mi
4:14 AM61 °FClear.15 mph72%30.20 "Hg10 mi
3:55 AM63 °FClear.14 mph73%30.20 "Hg10 mi
3:35 AM64 °FClear.17 mph68%30.20 "Hg10 mi
3:15 AM64 °FClear.5 mph64%30.18 "Hg10 mi
2:55 AM64 °FClear.7 mph68%30.18 "Hg10 mi
2:35 AM66 °FClear.3 mph60%30.19 "Hg10 mi
2:14 AM64 °FClear.3 mph68%30.20 "Hg10 mi
1:55 AM66 °FClear.No wind64%30.19 "Hg10 mi
1:35 AM64 °FClear.3 mph68%30.20 "Hg10 mi
1:14 AM63 °FClear.3 mph73%30.20 "Hg10 mi
12:54 AM63 °FClear.5 mph73%30.21 "Hg10 mi
12:35 AM63 °FClear.6 mph73%30.22 "Hg10 mi
12:14 AM61 °FClear.5 mph77%30.23 "Hg10 mi
11:55 PM
Wed, Jun 29
63 °FClear.6 mph73%30.24 "Hg10 mi
11:35 PM63 °FClear.7 mph73%30.25 "Hg10 mi
11:14 PM64 °FClear.5 mph68%30.25 "Hg10 mi
9:45 PM68 °FScattered showers. Passing clouds.7 mph69%30.28 "Hg20 mi
8:45 PM75 °FThunderstorms. Partly sunny.23 mph41%30.25 "Hg20 mi
7:45 PM75 °FPartly sunny.7 mph36%30.20 "Hg30 mi
6:45 PM81 °FPartly sunny.9 mph30%30.18 "Hg30 mi
4:45 PM82 °FBroken clouds.8 mph28%30.20 "Hg25 mi
3:45 PM86 °FScattered showers. Broken clouds.N/A27%30.20 "Hg25 mi
2:47 PM86 °FScattered showers. Broken clouds.18 mph19%30.19 "Hg25 mi
1:48 PM84 °FBroken clouds.6 mph29%30.20 "Hg15 mi
12:52 PM82 °FPartly sunny.3 mph37%30.22 "Hg15 mi
11:58 AM79 °FPartly sunny.No wind45%30.23 "Hg15 mi
Weather by CustomWeather, © 2016

See weather overviewHow to use our weather pages